User: anonymous   Login
Location: Puketoi
(40.5833°S, 176.0167°E)
Time: 16:55:31
(UTC+00:00)
Language:

PAYLOAD A - Orbit

View from above orbital plane
View from above orbital plane
View from above satellite
View from above satellite

Ground track
Ground track

The orbit data is extracted from the following two-line orbital elements,

1 27840U 03031A   24105.91407777  .00000190  00000-0  71890-4 0  9991
2 27840  98.5265  73.7004 0097401 190.0712 169.8526 14.39325979 91942
Epoch (UTC): 14 April 2024 21:56:16
Eccentricity: 0.0097401
inclination: 98.5265°
perigee height: 691 km
apogee height: 830 km
right ascension of ascending node: 73.7004°
argument of perigee: 190.0712°
revolutions per day: 14.39325979
mean anomaly at epoch: 169.8526°
orbit number at epoch: 9194

The dashed part of the orbit path shows where the satellite is in the earth's shadow,  

DLR